Location: Castiglione Fibocchi
(43.5333°N, 11.7667°E)
Time: 10:16:49
(UTC+00:00)

CZ-2D R/B - Pass Details

Date: 15 August 2020
Orbit: 792 x 845 km, 98.7° (Epoch: 18 September)

Event Time Altitude Azimuth Distance (km) Brightness Sun altitude
Rises 02:40:56 0° 356° (N) 3,415 5.9 -16.2°
Reaches altitude 10° 02:44:35 10° 331° (NNW) 2,475 4.7 -15.6°
Maximum altitude 02:47:05 13° 304° (NW) 2,237 4.2 -15.3°
Enters shadow 02:49:19 11° 279° (W) 2,421 4.2 -14.9°
